Temp
22 23 23 22 22 22 22 24 24 25 25 25 25 24 24 24 23 24 23 23 23 23 23 23 23 22 24 24 24 24 24 24 26 27 24 24 25 24 25 25 25 25 26
23 22 22 23 23 22 22 23 24 25 25 25 25 24 23 24 23 23 24 23 22 23 23 22 23 23 22 23 23 23 24 23 24 25 25 25 24 24 24 24 25 25 25
22 22 22 23 23 22 22 24 24 24 24 24 25 24 24 24 24 25 24 24 23 23 23 23 23 23 23 24 23 24 24 23 23 24 25 25 24 24 24 25 24 24 25
23 22 22 22 22 23 23 23 24 25 24 23 24 25 24 24 24 24 24 23 23 23 23 23 23 23 23 23 23 23 23 23 24 24 25 25 25 24 24 25 25 26 25
24 23 23 22 22 23 23 23 23 23 24 25 23 23 24 24 24 23 23 23 23 23 23 23 23 23 24 24 24 24 23 23 25 25 25 26 26 26 26 25 25 25 25
20 22 23 23 22 22 22 23 22 22 23 23 22 23 23 24 25 25 25 24 23 23 23 23 23 24 25 24 24 24 23 23 23 24 25 26 24 24 25 25 25 25 26
19 20 22 22 22 22 22 22 22 22 22 22 22 22 23 23 24 25 26 25 24 23 23 23 24 25 24 24 24 25 24 24 23 23 23 24 24 24 24 23 24 24 24
19 20 21 22 22 22 21 21 21 22 21 22 22 22 22 23 24 25 25 25 24 24 24 24 24 24 24 24 24 24 24 23 24 24 23 23 23 23 23 23 23 22 23
18 20 20 22 22 22 22 22 21 21 21 22 22 22 21 23 24 25 25 23 24 23 24 24 24 24 25 26 25 24 24 24 24 24 24 24 24 24 24 23 24 25 26
17 18 19 19 20 21 21 21 22 21 21 22 22 22 22 22 23 25 24 23 24 24 24 23 23 24 24 26 25 23 24 24 24 24 23 24 25 25 24 24 23 24 26
16 17 18 19 19 20 20 21 21 21 22 22 22 22 21 21 22 23 24 22 23 24 24 25 24 24 25 25 25 23 24 24 24 23 24 24 24 24 23 23 23 23 25
14 16 18 17 18 20 20 20 21 21 21 21 21 22 22 21 21 22 24 23 22 23 24 25 24 24 24 24 24 25 24 24 23 24 25 25 25 25 25 24 23 22 23
13 16 16 17 17 18 19 20 20 20 21 21 22 22 23 23 22 21 22 24 23 22 23 23 24 23 23 23 23 23 24 22 22 23 24 25 25 25 24 23 22 22 21
12 14 15 16 17 17 18 20 21 22 21 21 22 22 23 24 24 23 22 21 22 22 22 21 22 22 22 22 22 22 22 21 22 23 24 25 25 24 24 23 24 24 24
11 13 14 15 16 17 17 18 20 20 21 23 23 23 24 24 24 24 23 23 22 21 21 21 22 22 22 23 22 23 23 22 21 22 23 24 24 24 24 24 24 24 24
11 12 14 14 15 15 17 17 18 19 20 20 20 22 24 23 23 23 22 22 22 22 20 23 22 22 22 21 22 23 23 23 23 23 24 24 24 24 24 24 24 24 25
11 12 12 13 13 14 16 18 19 21 20 21 21 21 21 22 22 23 22 22 21 21 21 22 23 22 22 22 22 23 24 24 23 22 23 24 24 24 24 24 25 24 25
9 10 11 11 12 13 14 16 18 19 21 22 23 22 22 22 22 22 23 22 20 20 21 22 22 21 22 21 22 22 22 23 23 22 22 23 23 23 24 24 24 25 24
8 9 10 10 10 11 12 13 16 18 19 19 21 21 21 22 22 21 21 21 21 22 19 20 21 21 21 21 21 21 21 20 20 21 21 22 22 22 22 23 23 23 23
7 8 8 10 11 11 11 12 13 15 18 19 18 20 22 21 21 20 19 20 21 23 23 22 21 21 21 21 21 21 21 21 20 20 20 20 20 20 21 21 21 21 20
7 7 8 9 9 10 11 11 13 14 16 18 19 20 20 20 21 19 18 18 19 21 22 22 22 21 21 21 21 21 21 21 21 20 20 20 20 20 20 20 20 20 19
6 7 7 8 9 9 10 11 12 13 15 18 18 19 19 20 20 21 20 20 20 19 21 22 21 21 21 21 21 21 21 21 21 20 20 20 20 20 19 19 18 19 18
6 7 7 8 8 9 10 10 11 12 14 17 18 18 18 19 19 20 20 20 20 19 19 20 20 20 21 20 20 20 20 20 20 20 19 19 19 19 18 19 19 19 20
6 6 7 8 8 9 10 10 11 12 13 15 18 18 18 18 18 18 18 18 18 17 17 16 18 18 18 18 18 18 19 19 19 19 18 18 18 18 19 19 20 20 19
4 5 5 6 7 8 8 9 9 10 11 12 14 15 16 16 15 13 12 12 10 11 11 11 12 12 12 13 13 15 16 16 16 16 16 16 16 16 17 16 15 15 15
3 3 4 4 4 5 6 6 7 7 8 9 9 10 11 10 9 8 8 7 7 6 6 6 6 7 8 8 8 9 10 11 13 14 14 13 13 12 12 12 12 11 10
Height
826 830 834 838 843 847 850 853 856 859 860 862 864 867 869 871 873 876 877 879 880 882 882 884 886 887 888 889 890 891 890 890 888 886 887 885 883 882 879 877 875 872 869
821 825 829 831 837 843 844 847 852 855 857 859 860 863 866 867 870 871 875 876 877 878 880 881 883 884 885 886 887 888 888 888 887 886 884 884 882 879 877 875 873 870 867
819 821 825 829 832 836 839 842 846 850 853 855 856 858 860 863 865 867 869 872 873 874 876 877 879 880 882 884 884 885 885 885 885 884 882 881 880 878 875 874 871 868 865
815 817 819 821 825 829 833 836 840 843 848 851 852 854 856 858 861 863 865 867 868 870 872 873 874 876 877 879 880 881 882 882 882 881 879 878 877 876 874 872 869 867 864
811 812 813 815 818 822 826 830 833 837 840 844 847 850 851 854 856 857 860 862 863 865 867 868 869 870 871 873 875 876 877 878 878 877 875 874 873 873 872 870 867 865 861
808 807 810 813 814 816 818 822 826 829 832 836 840 842 845 848 850 851 854 856 858 859 861 862 864 865 866 867 869 870 872 873 874 874 871 870 871 871 869 867 864 863 859
803 802 804 807 809 811 813 816 818 821 825 827 831 834 836 838 841 844 847 849 851 853 854 856 858 860 860 861 862 864 865 866 867 867 866 866 866 866 865 863 861 860 858
797 797 799 802 804 806 808 809 809 814 817 819 821 825 827 828 831 834 839 843 844 845 847 848 849 852 853 855 856 858 858 858 858 859 858 858 859 860 860 860 858 856 854
805 802 800 798 799 800 801 802 803 807 808 810 812 815 818 819 822 825 829 834 837 837 838 839 840 842 844 846 849 851 851 851 852 851 851 851 852 853 854 854 853 851 847
805 803 801 797 795 794 795 795 798 800 802 804 805 806 808 809 812 815 819 825 827 827 828 828 828 831 833 837 840 843 843 843 846 846 845 843 844 845 846 846 847 846 843
806 804 796 794 791 790 789 790 791 793 795 796 798 799 800 800 802 804 808 812 815 816 818 818 818 818 821 826 829 832 832 835 838 839 838 837 837 838 838 837 837 838 837
800 797 794 790 790 788 783 784 784 786 787 788 790 791 791 792 792 793 795 798 802 806 807 808 808 808 810 814 818 820 824 827 829 829 829 828 828 829 829 830 830 829 829
799 795 792 790 790 784 779 776 777 779 779 780 781 781 781 783 785 784 785 788 791 795 796 798 801 801 803 806 808 811 816 818 819 819 818 818 819 820 821 821 821 821 820
797 792 789 787 785 779 776 773 771 772 773 772 773 773 774 775 776 777 777 779 782 786 787 790 793 795 797 798 800 802 805 808 808 808 808 808 810 811 811 813 814 814 814
793 788 785 782 775 774 770 768 767 764 764 765 764 766 766 764 765 768 769 770 770 773 781 784 785 786 786 788 790 792 795 797 798 798 798 799 801 801 801 803 804 804 804
782 779 776 774 769 769 766 763 760 757 757 757 756 756 755 756 758 760 762 764 767 770 773 774 773 774 775 778 780 782 783 785 786 788 788 790 791 792 793 794 795 796 796
775 771 768 768 765 766 763 761 755 750 749 747 746 744 744 745 749 751 753 757 762 764 763 762 762 763 763 766 769 771 771 773 777 778 779 780 781 782 783 784 786 787 787
770 766 764 762 761 760 757 756 752 746 742 737 736 735 734 735 737 742 745 750 752 752 752 752 751 753 754 755 758 760 763 765 767 769 770 770 771 771 772 773 775 775 777
763 761 758 755 754 753 751 751 746 741 735 731 729 728 727 727 727 731 737 738 739 740 741 742 742 743 744 745 747 750 753 755 757 758 759 759 760 760 760 762 763 765 767
755 753 751 748 745 744 744 740 738 734 728 727 724 721 722 719 719 719 722 727 730 730 731 731 733 733 733 735 736 739 742 743 745 747 747 748 748 750 750 751 753 754 756
743 742 740 738 735 733 732 731 731 728 722 720 717 714 715 714 711 713 714 713 718 720 720 721 722 724 725 726 727 728 730 732 734 737 738 739 740 741 742 743 745 746 748
733 731 729 727 725 724 722 723 722 719 714 712 711 707 707 706 704 704 705 703 703 708 711 710 710 712 713 716 717 718 720 722 724 725 729 730 731 734 735 738 740 740 742
721 719 717 714 713 712 712 711 710 707 702 704 703 699 698 698 697 697 697 697 698 698 701 700 702 705 702 706 708 709 710 712 714 717 719 722 724 727 730 734 736 737 737
710 708 705 703 702 701 700 698 697 696 696 697 692 689 689 688 689 691 691 691 692 694 694 698 696 701 695 698 700 700 702 705 708 710 712 715 719 722 725 729 732 733 733
703 700 697 695 692 691 690 688 688 687 686 685 682 682 683 682 683 686 685 687 690 691 692 693 695 695 695 695 696 695 696 700 702 706 708 710 712 715 720 724 728 733 734
699 695 690 687 685 683 680 678 676 675 675 676 675 675 675 674 677 680 681 686 686 687 691 696 695 695 697 698 698 695 696 698 698 703 704 707 710 715 719 720 723 727 732
Wind_Speed
26 28 27 26 28 28 25 26 25 22 17 14 15 15 15 15 14 14 12 11 11 10 10 9 8 8 6 5 5 5 5 4 8 8 7 9 11 12 15 15 12 12 15
27 28 29 32 28 25 29 28 29 26 23 18 15 15 15 16 16 16 13 13 12 11 10 10 10 9 8 7 8 8 8 7 8 10 10 10 11 13 15 14 12 13 14
22 24 25 26 26 28 28 30 29 29 26 22 20 17 16 17 18 18 17 16 14 13 12 12 11 10 10 9 9 9 8 8 9 10 13 11 12 12 15 14 13 13 13
20 23 26 30 31 30 29 29 31 33 31 27 26 24 20 19 19 18 18 17 17 16 15 14 14 13 12 11 10 11 10 10 11 12 13 13 12 12 13 14 15 14 16
21 23 26 29 33 37 33 30 31 29 31 34 29 26 25 21 20 19 18 18 17 17 17 16 16 17 17 15 13 12 11 12 13 13 15 15 14 12 13 14 15 15 16
17 25 25 25 26 27 30 36 30 31 32 30 30 29 28 27 27 27 23 18 18 17 19 20 19 20 19 18 18 19 18 15 15 15 17 17 15 14 13 14 16 13 10
16 19 24 24 25 27 28 27 28 29 30 29 30 31 35 35 34 35 32 25 21 19 20 20 20 19 21 18 18 19 20 22 23 22 21 21 19 17 15 16 15 14 15
17 10 18 23 25 25 24 27 28 28 28 30 29 31 34 36 41 41 40 36 27 26 24 24 25 23 21 21 18 17 18 18 21 24 25 24 21 18 16 16 15 16 16
18 14 9 17 21 23 25 26 26 24 25 28 28 29 29 37 39 40 40 33 32 32 31 30 29 28 31 31 26 22 21 22 20 23 25 27 25 23 21 19 17 17 18
21 19 14 10 13 19 22 24 24 23 24 24 25 26 30 34 37 38 37 32 31 34 33 33 35 37 36 36 33 25 24 26 20 19 19 20 22 24 22 23 19 19 20
22 19 19 16 11 12 14 19 21 23 23 23 25 26 28 30 34 37 35 34 32 31 33 32 35 37 41 41 39 31 31 27 21 19 20 20 18 17 17 19 22 21 21
30 23 19 22 18 12 10 14 18 23 25 25 25 26 26 29 34 36 35 35 36 32 32 32 32 35 38 37 38 41 38 33 24 23 23 23 22 21 20 20 20 21 22
29 26 24 20 21 17 13 12 15 19 25 23 23 24 26 26 28 33 38 36 36 39 35 33 32 31 33 33 32 32 31 29 25 24 25 25 23 22 19 18 18 20 20
30 28 28 22 21 18 17 15 14 20 21 23 24 25 26 26 27 27 27 37 36 37 43 36 32 29 28 26 24 27 31 26 26 26 26 25 22 20 19 18 18 18 18
27 28 25 25 21 20 18 18 17 20 23 27 27 26 26 27 29 31 29 27 27 32 28 27 28 28 28 27 26 26 25 24 27 28 27 25 23 22 22 20 19 19 21
29 27 23 20 20 22 21 23 23 25 25 28 34 34 28 33 32 31 34 36 30 26 24 28 27 27 26 25 25 26 27 30 30 27 28 26 26 24 23 21 20 21 21
29 25 22 21 20 21 23 23 23 19 20 23 26 32 39 47 35 35 35 31 33 30 25 25 27 26 26 25 26 27 28 28 26 27 27 26 25 25 24 24 22 22 23
26 24 23 20 19 22 21 24 23 22 20 19 17 20 23 34 41 45 36 30 33 37 29 28 25 25 24 24 25 25 25 24 23 25 24 25 25 25 24 24 24 26 24
24 23 22 21 23 25 24 26 25 24 22 23 22 24 26 26 25 34 38 37 31 29 34 32 29 27 27 28 27 26 26 27 28 27 28 27 25 24 24 24 23 24 23
24 26 27 24 22 22 24 24 23 24 23 25 24 27 20 18 21 26 35 43 33 31 29 29 31 29 30 29 29 29 27 27 30 31 30 28 27 27 26 24 24 23 26
24 25 26 24 23 23 23 23 24 23 23 26 29 26 23 24 24 23 27 31 36 38 34 30 28 28 28 29 29 29 29 30 30 30 29 27 26 25 25 25 27 26 21
25 25 25 25 24 24 25 26 25 25 26 28 29 27 24 27 28 25 25 29 32 35 34 32 31 32 30 30 30 30 29 29 28 29 29 29 29 28 26 26 21 20 19
26 26 26 26 26 25 25 26 26 27 24 29 28 23 22 29 28 25 24 24 23 27 31 31 29 29 28 28 30 29 29 30 33 33 30 29 27 25 21 20 19 18 19
22 24 24 23 23 24 25 27 27 29 30 31 27 24 24 24 25 26 22 19 18 18 17 17 21 24 23 25 26 26 25 27 28 26 24 21 18 16 16 17 19 18 18
16 20 18 18 19 21 22 21 21 22 26 27 25 24 21 19 18 17 15 14 11 10 8 7 9 10 9 10 11 12 16 20 21 22 19 14 13 12 10 8 12 11 11
9 8 11 10 10 14 15 15 13 12 11 13 13 14 19 18 17 16 14 15 15 13 13 12 12 11 9 9 9 10 12 13 17 18 17 16 15 13 12 13 14 15 14
Wind_Direction
214 216 215 220 227 226 226 228 228 225 225 221 223 223 220 222 220 221 216 216 222 225 231 239 241 249 250 250 246 242 253 252 283 301 300 314 327 327 333 340 339 336 330
217 213 219 220 223 227 226 228 227 228 227 227 229 223 220 222 222 222 222 215 218 222 224 227 232 234 241 247 247 244 251 255 275 291 302 309 310 321 328 333 333 329 329
215 214 220 224 219 224 228 228 229 231 233 228 227 225 219 218 220 227 229 233 225 229 228 228 229 227 232 237 236 244 255 259 262 274 292 298 307 318 323 327 326 326 332
223 217 217 219 223 224 229 231 232 233 234 235 232 230 226 220 220 224 230 231 230 232 232 232 232 230 231 234 239 246 255 257 263 266 280 291 299 310 317 318 321 323 324
241 232 229 226 227 232 230 231 235 233 234 238 237 235 232 228 226 224 226 230 233 233 231 234 237 237 242 243 244 250 252 256 263 270 278 283 288 299 307 309 304 315 319
258 243 241 235 229 226 228 233 231 234 237 235 235 235 236 234 235 234 231 227 232 233 232 235 238 245 246 250 253 256 253 254 260 270 275 277 283 288 294 298 303 313 314
306 256 245 239 234 230 230 228 228 229 233 233 235 235 236 238 236 240 239 231 230 230 232 233 239 244 250 247 253 258 258 257 255 256 262 267 276 277 283 284 289 295 295
347 307 254 240 239 236 233 229 228 230 228 231 234 236 238 241 243 244 245 242 236 235 234 235 238 241 242 246 244 249 252 254 255 254 253 259 263 269 272 278 282 285 289
338 341 296 247 246 240 236 235 234 232 231 231 234 236 236 245 246 247 245 238 240 239 239 237 236 241 247 253 249 249 254 257 260 264 259 262 269 270 266 270 271 278 285
330 323 325 311 274 251 245 243 240 237 237 239 239 237 237 243 250 251 246 235 236 240 241 240 243 242 246 254 253 245 250 256 260 261 262 268 264 263 263 258 259 265 277
313 302 310 311 297 261 264 256 244 240 239 238 241 240 238 241 245 248 247 237 234 237 241 240 241 244 248 248 252 245 244 253 260 262 263 262 258 254 253 257 251 248 262
310 301 304 303 295 273 267 265 253 240 238 237 236 241 242 244 244 245 245 241 234 234 240 243 241 241 247 251 250 252 254 259 256 254 255 254 255 255 254 250 248 251 255
303 293 295 293 286 286 273 260 257 250 232 237 237 240 244 243 244 245 244 244 240 232 237 243 244 244 245 250 252 254 255 251 246 245 244 249 251 256 255 253 254 254 254
292 287 286 285 283 283 278 264 250 245 242 236 239 239 245 246 242 239 240 238 240 240 240 241 243 243 244 244 245 249 245 240 239 240 243 247 249 249 248 251 253 254 255
282 278 272 280 286 281 273 266 259 250 245 246 244 244 245 245 241 239 231 227 223 229 228 234 238 238 239 240 240 238 239 239 236 239 242 243 243 244 246 246 246 248 246
280 272 267 276 280 280 275 276 270 260 253 255 253 244 246 250 252 252 244 237 237 234 219 229 231 228 229 231 234 237 237 239 238 238 239 241 242 244 246 246 244 241 248
273 268 272 270 270 269 271 269 273 273 269 260 255 249 243 246 252 255 246 245 240 236 226 228 231 229 227 228 235 236 239 242 242 240 241 240 242 243 244 245 243 244 248
278 272 262 261 263 267 268 268 267 272 274 273 270 269 261 251 249 244 250 237 231 228 230 234 228 225 227 227 233 238 239 242 240 240 241 240 238 238 241 240 240 239 242
269 262 256 252 254 261 265 265 267 266 269 275 277 273 269 266 263 248 238 227 226 230 228 229 231 227 225 229 232 235 237 237 239 239 240 240 238 232 234 236 236 238 235
272 267 259 257 254 250 256 260 263 263 267 268 266 265 269 260 256 246 233 233 234 238 234 234 233 231 229 229 230 232 236 237 238 238 239 235 234 231 228 228 225 219 218
269 264 257 252 250 248 249 253 256 256 258 261 262 263 263 262 257 244 227 226 231 235 234 233 233 234 233 234 231 229 233 237 237 238 238 236 234 228 227 224 225 218 211
261 259 254 250 250 246 243 245 250 253 256 259 262 262 265 266 255 249 238 231 240 234 236 232 232 233 232 231 232 232 232 236 235 234 236 234 234 230 231 223 217 206 199
261 259 251 247 243 244 246 245 250 256 259 262 261 258 260 260 251 246 240 230 232 229 232 230 234 228 224 227 227 228 232 234 240 242 236 235 228 218 213 210 210 210 208
269 263 260 255 250 247 250 244 241 244 249 256 257 259 254 251 245 241 232 227 226 224 225 229 225 236 233 234 235 234 236 237 239 237 230 213 204 203 212 225 229 222 205
274 265 261 257 247 247 246 242 243 246 251 260 266 257 247 215 203 202 197 193 191 186 188 193 203 209 205 203 204 209 216 218 212 204 193 185 184 185 190 193 203 196 188
325 294 285 278 259 249 242 235 229 229 228 228 226 215 203 183 175 172 163 165 154 137 131 123 118 118 127 131 145 162 166 167 172 185 174 164 154 140 144 141 133 116 100